Theta_e
322 323 322 322 321 321 320 320 320 319 319 319 318 318 318 318 319 320 320 319 317 317 318 318 320 322 319 316 316 339 346 345 319 312 310 312 315 313 314 325 327 324 327 328 330 328 327
323 323 323 322 322 321 320 320 320 320 319 319 319 319 318 319 319 320 320 319 317 316 317 319 321 323 318 309 331 337 332 320 315 312 310 317 315 315 321 325 322 326 329 328 328 328 328
324 324 323 322 322 321 321 320 320 320 320 320 319 320 320 319 319 319 318 317 316 316 317 320 322 322 317 314 331 328 323 317 314 313 309 314 318 311 326 322 332 329 324 327 327 326 325
324 324 324 324 323 322 321 321 321 320 319 320 319 319 319 319 319 318 316 315 315 316 319 321 322 320 316 325 330 321 313 312 312 313 314 316 316 313 329 332 328 324 323 316 325 326 326
324 324 324 324 323 323 322 321 321 320 319 319 319 319 319 318 318 316 315 315 318 318 321 324 320 317 311 326 319 320 315 310 310 311 312 315 312 324 327 321 319 321 313 315 319 328 325
325 324 324 324 323 322 322 321 320 320 319 319 319 318 318 317 316 315 314 316 322 323 323 323 321 313 316 314 316 318 317 313 311 310 307 307 308 316 318 318 308 311 313 314 315 323 325
325 324 324 324 323 322 322 321 321 320 319 319 319 318 317 316 315 313 313 318 313 312 319 311 312 312 314 318 317 315 316 315 309 307 303 303 303 304 314 318 312 315 315 310 317 325 323
324 324 323 323 322 322 322 322 321 320 319 319 318 317 316 315 314 312 310 314 311 311 306 311 312 314 317 318 311 312 316 310 307 302 302 302 301 305 305 312 309 306 305 306 319 323 322
324 323 322 322 322 322 321 321 321 320 319 318 318 317 315 314 313 311 310 312 313 314 307 310 314 314 315 318 312 311 313 308 305 302 301 300 302 302 304 304 305 305 304 306 307 320 321
323 322 322 322 322 322 321 321 320 320 318 318 318 316 314 311 311 311 310 314 314 312 305 307 310 314 316 317 310 314 314 310 304 302 301 302 304 301 300 301 303 303 307 305 317 315 308
323 323 322 322 321 321 321 320 320 319 318 318 317 315 313 311 310 312 311 314 312 312 296 309 311 317 312 311 311 309 312 309 303 303 302 303 301 300 300 302 304 305 307 311 317 313 310
323 323 322 321 321 321 320 319 319 319 318 317 315 313 312 309 309 314 315 312 313 303 295 306 309 308 308 309 308 308 309 311 309 305 305 305 308 304 304 304 304 312 313 312 312 312 303
323 322 322 321 321 320 319 319 319 318 317 316 313 311 309 312 312 313 314 313 302 295 306 305 305 306 307 306 307 307 306 305 303 300 301 302 303 306 308 307 307 314 311 303 301 301 300
322 320 320 320 320 320 319 319 319 318 316 313 310 308 310 312 314 312 313 308 295 299 302 308 306 304 304 306 306 305 304 303 304 303 301 300 297 304 307 307 309 311 312 301 294 295 299
320 319 319 320 320 319 319 319 318 316 314 312 309 312 312 315 314 313 310 300 299 301 305 304 304 302 303 305 305 304 304 304 306 305 301 300 300 305 307 307 310 304 306 306 300 300 299
318 318 319 319 320 319 319 319 317 315 313 311 309 308 311 314 315 311 306 298 302 304 307 306 300 302 301 302 303 303 302 306 305 306 309 305 300 306 308 310 309 306 307 300 302 294 293
317 317 318 319 319 319 320 320 316 314 312 310 307 306 312 314 307 307 299 302 304 307 308 304 302 301 302 301 302 301 304 306 306 304 308 306 304 305 308 306 305 305 305 305 306 302 296
317 317 317 318 319 320 320 319 315 312 310 309 305 303 311 312 302 299 301 303 302 307 308 305 307 305 304 303 302 302 302 307 309 307 304 308 306 303 305 310 310 308 308 309 301 301 304
315 316 317 318 318 320 320 318 314 311 310 309 303 303 315 309 298 300 305 304 305 304 304 305 305 306 306 304 302 303 305 310 308 308 307 309 306 301 303 306 309 308 308 307 307 308 304
316 317 317 318 318 319 319 317 313 311 310 310 305 303 311 311 308 306 304 304 304 309 307 308 308 308 305 304 305 304 304 308 309 310 319 314 306 305 300 304 308 306 307 308 308 303 303
315 317 317 317 316 317 319 318 314 311 310 309 307 303 306 302 305 304 305 304 303 304 309 308 305 306 304 302 302 301 303 307 311 315 308 310 306 305 304 304 306 306 307 307 306 307 304
315 316 317 318 316 317 319 318 314 312 309 311 306 305 307 303 301 303 300 302 303 303 306 305 303 306 306 304 305 303 304 307 308 309 308 305 303 304 302 304 304 305 307 308 307 306 308
313 315 316 318 319 319 319 318 315 312 309 307 307 308 307 299 300 300 300 302 303 303 306 309 307 306 306 308 311 313 312 308 307 308 308 308 304 304 300 304 304 301 306 308 309 311 310
311 313 313 317 318 319 319 317 315 314 311 311 308 308 305 299 301 301 303 303 302 302 302 305 305 303 310 316 316 309 305 305 306 306 307 306 307 306 301 303 295 305 310 311 310 311 313
310 313 313 315 317 318 320 318 316 315 313 311 310 309 306 299 302 302 302 303 304 303 301 301 306 311 316 313 307 302 301 303 302 303 305 305 307 300 300 299 301 304 310 310 309 309 315
311 313 312 313 315 317 319 318 316 315 313 311 309 311 308 301 300 303 303 303 299 300 303 306 309 314 314 309 305 299 297 301 299 301 303 303 310 306 299 297 295 306 312 316 315 306 318
310 311 311 313 315 317 319 317 317 315 314 313 310 311 308 302 305 305 302 301 304 302 300 302 305 305 314 308 303 301 300 303 299 300 300 300 300 302 300 300 301 308 313 316 303 304 319
311 311 312 312 314 317 317 316 316 315 315 313 311 312 309 304 306 308 307 304 305 304 299 304 303 308 310 306 304 304 302 302 301 304 303 301 298 298 299 299 296 311 314 309 316 316 322
310 311 311 312 313 315 315 315 315 314 314 313 307 311 311 304 306 312 311 312 311 310 305 305 304 304 308 309 310 307 304 303 303 299 306 300 305 300 304 305 312 320 319 321 320 322 323
Wind_Speed
17 17 16 16 16 16 17 17 17 18 18 17 17 17 17 17 16 16 14 13 13 12 11 9 8 7 2 2 3 2 12 9 5 3 4 5 4 2 2 3 3 3 6 6 8 8 9
16 17 17 17 17 18 18 18 18 17 17 17 18 17 18 17 17 17 16 15 13 12 10 8 7 6 3 2 3 7 12 8 4 3 3 3 2 2 5 3 2 3 9 12 7 7 6
14 15 17 18 18 18 18 18 19 19 18 18 17 18 17 18 18 18 18 16 14 11 8 5 3 3 2 3 4 8 9 5 4 3 3 2 1 1 5 5 7 11 10 8 5 5 4
14 15 15 15 15 18 18 17 18 19 19 18 18 18 19 19 20 19 18 16 13 8 6 3 2 2 2 3 7 7 5 4 2 2 1 2 1 3 1 8 5 1 2 2 4 6 5
14 14 14 15 15 15 17 17 18 20 20 19 18 18 19 19 19 19 18 17 8 3 3 5 2 2 2 4 4 5 4 6 6 4 2 2 1 3 6 7 5 2 2 2 6 6 5
14 15 15 15 15 16 16 19 20 19 21 21 19 19 19 19 19 18 15 6 9 8 3 3 3 3 2 1 4 5 4 7 3 6 4 2 2 4 4 6 1 5 3 2 2 9 6
15 15 15 15 15 17 17 17 20 21 21 22 20 20 21 20 19 16 2 2 2 2 3 4 1 2 2 0 5 3 4 5 3 2 4 2 5 9 13 7 2 2 3 1 2 8 7
14 15 15 15 15 17 17 16 18 20 23 22 21 21 22 22 21 7 3 1 6 3 7 6 8 6 6 2 4 4 8 4 2 4 2 4 8 5 2 6 4 3 3 1 4 7 7
14 14 15 15 16 16 17 16 18 21 23 23 20 20 22 22 20 2 4 2 4 1 3 4 4 4 4 8 5 10 9 4 3 4 4 7 1 4 7 7 8 7 7 4 1 7 4
13 13 13 15 16 16 17 17 16 20 23 25 19 19 19 28 2 4 3 5 5 5 3 2 4 3 6 4 4 3 8 4 3 8 5 6 2 4 9 11 9 10 10 2 9 8 1
13 13 13 14 16 16 15 16 16 19 24 22 21 17 14 7 7 4 3 5 1 4 3 4 4 5 3 5 7 4 1 4 5 7 6 2 7 9 7 10 14 6 4 10 11 4 3
14 14 15 15 16 16 15 16 17 18 24 23 23 17 16 2 3 6 8 6 3 2 5 3 5 6 7 2 3 4 5 1 1 5 6 8 1 5 5 4 14 9 9 8 5 2 5
13 14 14 15 16 16 16 17 17 17 23 25 24 22 11 3 1 5 5 3 2 5 2 4 4 5 7 6 7 6 9 10 6 5 6 2 5 2 4 6 7 7 10 4 4 5 3
14 13 15 15 15 16 16 16 17 17 21 25 25 21 4 4 4 6 3 3 6 2 5 1 1 3 6 9 5 8 6 9 7 4 2 4 6 6 4 4 6 10 8 6 8 6 4
14 13 14 14 15 16 17 16 16 17 21 25 23 2 2 2 3 3 4 7 6 6 1 2 0 4 5 5 3 6 9 7 7 15 7 5 2 0 1 2 3 6 6 3 5 2 4
15 15 15 14 13 14 15 15 15 18 22 24 7 4 4 6 5 2 4 5 3 3 1 1 1 2 5 3 9 10 8 5 8 15 9 3 3 2 5 3 11 2 7 5 3 7 8
15 16 16 15 15 14 15 12 14 18 23 18 2 2 4 4 2 0 5 4 4 5 3 1 2 2 0 1 6 5 7 4 6 8 11 6 4 4 3 1 7 5 5 4 3 3 7
16 14 15 14 15 14 13 11 13 15 22 5 4 2 3 2 1 1 2 2 2 2 2 1 2 5 3 2 2 5 9 9 10 13 11 6 2 3 2 2 2 1 3 6 6 5 1
16 13 13 14 14 14 12 11 11 11 11 4 5 4 2 3 2 1 2 3 4 5 7 3 4 6 4 3 3 5 6 3 10 12 13 11 3 5 5 4 3 4 4 3 6 2 7
15 15 14 13 14 14 12 11 11 10 9 2 3 3 2 3 2 2 4 2 3 3 4 3 4 2 3 5 6 5 3 1 10 7 4 9 5 9 10 6 4 6 6 6 6 5 5
14 14 14 13 15 15 13 10 11 11 8 2 2 3 2 3 2 5 2 3 3 3 2 2 1 3 0 4 4 7 6 3 3 9 4 5 6 4 2 4 4 4 10 12 10 4 6
16 13 15 15 14 14 12 9 10 12 8 1 3 3 1 2 3 3 1 1 2 4 4 2 1 6 2 5 4 4 6 4 5 6 5 2 5 4 4 3 6 6 6 11 7 4 8
15 14 15 16 14 12 12 6 9 11 7 3 1 0 2 1 2 3 1 0 1 7 6 9 5 7 9 7 8 15 14 14 7 3 7 7 8 6 5 2 7 6 12 12 8 7 7
16 15 15 16 16 13 10 4 6 8 6 1 2 2 2 2 3 3 3 4 9 7 8 11 13 6 6 14 17 6 9 11 11 7 3 9 8 2 5 7 7 1 2 5 12 6 12
14 13 14 16 16 16 14 2 4 5 3 2 1 2 1 3 4 9 9 6 5 8 8 12 16 12 11 12 5 5 4 5 4 3 6 4 7 5 5 9 2 3 5 7 9 10 13
13 12 13 15 15 15 10 5 3 3 2 0 1 1 2 3 2 4 5 4 5 4 5 5 9 12 6 4 2 4 6 4 7 5 3 4 2 8 5 8 10 8 7 6 5 8 10
13 12 12 14 13 15 7 4 4 3 1 1 2 3 1 3 7 5 5 5 1 2 5 6 7 5 1 4 2 5 3 3 7 14 8 5 3 13 6 7 4 5 7 7 9 3 12
12 12 12 13 13 12 6 4 4 3 2 1 3 3 3 3 10 12 14 13 10 7 6 5 6 3 3 4 4 1 4 3 4 2 9 8 8 5 4 6 9 10 10 10 5 3 10
13 13 12 12 12 12 6 6 4 4 3 1 2 1 1 3 7 9 13 15 17 14 5 4 5 6 3 4 1 5 3 4 5 5 2 6 5 9 10 7 2 15 3 5 4 6 9
Wind_Direction
33 31 24 22 16 15 15 11 9 4 359 357 353 347 343 337 329 326 323 321 318 317 320 317 317 322 285 210 65 93 146 138 125 139 185 174 155 163 59 104 128 99 111 80 116 120 114
21 24 14 12 8 8 9 6 3 358 350 348 348 340 340 332 327 324 322 320 315 311 312 313 308 312 268 114 87 132 140 143 157 168 183 172 113 154 99 122 30 119 105 115 131 128 137
7 8 9 7 6 7 4 2 0 355 348 343 341 336 331 328 326 323 322 316 308 303 297 295 292 292 250 56 122 135 148 181 175 189 176 238 56 310 141 126 127 133 102 117 118 141 150
359 1 360 355 355 1 0 358 356 351 346 338 337 335 330 329 325 323 321 314 302 288 273 243 222 249 258 78 137 149 144 121 165 185 348 337 272 88 116 124 122 132 128 129 146 179 132
356 356 353 350 349 351 355 355 353 351 346 339 334 333 328 326 324 323 321 314 291 211 188 166 190 302 84 130 190 166 173 144 142 179 272 224 169 81 146 157 139 171 130 156 148 190 153
348 348 347 347 348 354 352 355 352 350 346 340 333 331 329 328 326 329 315 303 116 124 151 191 245 221 201 106 147 139 173 150 144 146 150 167 96 158 157 198 213 175 178 172 190 189 193
340 342 343 343 344 351 348 350 351 348 345 339 332 330 330 331 328 335 287 177 228 157 182 243 355 310 290 38 144 138 166 158 129 101 175 64 194 195 197 179 9 191 157 146 200 169 187
337 338 338 339 339 345 340 339 348 345 343 337 331 330 329 330 329 328 267 101 99 57 307 230 252 253 264 292 157 130 163 149 158 174 145 178 227 201 236 205 246 262 299 19 93 165 218
334 334 334 335 335 335 337 331 340 343 340 337 329 330 330 330 325 251 321 123 96 151 268 289 200 197 188 180 184 183 181 137 145 161 196 228 240 154 181 176 207 242 251 219 308 155 208
325 327 330 332 332 330 334 327 329 339 337 332 329 330 334 328 245 337 264 143 329 202 301 222 217 203 144 184 181 162 179 156 166 209 176 251 201 194 192 216 203 242 228 213 150 177 235
320 322 324 328 328 325 323 323 323 333 335 328 325 331 331 332 313 252 60 339 222 219 264 121 150 120 140 199 131 162 199 163 178 167 192 201 177 187 195 212 190 241 160 155 162 142 193
325 324 325 327 324 321 320 320 319 324 332 326 321 329 331 146 226 265 318 319 212 258 246 169 145 164 160 159 118 122 171 106 58 198 223 260 179 214 213 166 194 145 112 105 128 168 231
323 326 326 322 321 323 321 321 322 322 328 323 321 319 305 235 262 332 313 191 184 228 7 166 193 173 197 166 182 169 175 195 215 200 224 207 209 214 191 116 160 186 187 159 190 207 274
323 333 327 322 324 324 323 322 321 322 326 321 322 316 187 226 281 342 249 157 208 225 247 332 46 153 201 166 190 176 167 215 209 207 279 233 184 191 167 240 160 178 219 202 227 237 243
332 334 326 326 329 328 327 325 325 328 328 324 319 327 227 256 218 216 194 202 207 203 256 295 246 196 193 190 189 183 209 221 217 195 219 182 198 164 319 146 191 154 202 49 110 93 252
334 338 333 328 328 325 325 326 333 336 332 331 326 320 341 342 174 193 189 222 234 231 304 219 231 230 213 177 182 191 187 200 220 193 208 172 176 40 134 149 56 219 121 182 218 222 246
338 331 330 335 332 329 328 336 340 342 334 329 324 342 20 94 266 332 202 216 239 240 249 6 156 297 228 153 220 196 210 222 212 168 193 165 239 133 208 246 160 147 169 75 102 316 257
335 334 333 337 338 331 336 348 346 351 340 28 339 305 41 231 161 351 200 218 284 227 201 295 239 235 225 224 242 222 222 233 171 155 178 173 176 165 92 81 348 66 149 188 247 181 41
344 337 335 339 341 340 343 347 345 356 11 321 347 298 3 277 266 222 311 274 265 245 264 234 233 221 187 219 300 226 216 222 170 169 167 169 187 151 150 166 167 218 151 120 105 130 183
339 338 338 342 342 338 338 341 346 352 7 350 314 331 1 55 22 12 357 326 279 335 253 235 265 222 185 252 222 288 266 157 178 193 112 140 134 211 210 203 141 181 182 182 229 204 169
334 339 340 342 342 339 340 341 347 347 355 284 360 53 26 350 74 341 289 307 298 298 335 301 179 118 118 240 212 225 242 246 115 143 119 206 171 173 134 145 179 195 183 179 204 190 231
333 339 343 337 338 338 337 339 350 349 341 16 348 345 6 279 286 293 181 207 279 336 301 259 241 335 313 250 281 311 352 220 205 182 161 141 139 148 156 204 220 220 212 197 203 185 251
333 338 344 340 333 332 324 341 2 0 350 11 41 166 280 13 308 278 237 343 143 355 270 270 334 335 303 281 287 290 267 263 284 226 162 156 144 172 179 169 170 228 216 199 200 194 224
338 339 335 339 338 334 335 4 10 25 44 1 31 312 275 263 256 256 281 293 289 302 272 291 302 272 269 319 305 268 240 254 235 203 206 145 131 149 133 160 208 46 338 227 220 221 211
332 331 335 340 339 340 336 18 26 17 53 32 35 303 311 278 283 278 266 267 278 298 251 257 273 263 295 300 279 267 191 192 140 84 169 249 141 113 171 204 329 208 198 184 190 236 210
330 344 340 333 335 335 337 12 7 343 15 344 245 211 263 290 259 298 317 304 300 299 301 258 307 304 266 245 214 256 225 198 171 132 65 136 114 174 162 204 219 223 181 179 177 243 186
333 337 334 333 333 328 323 351 348 337 336 288 287 206 266 263 276 267 250 291 275 335 293 293 337 306 38 231 192 265 282 284 187 168 161 148 101 190 170 204 236 241 153 153 200 258 171
330 330 331 332 332 336 347 338 342 340 323 261 293 202 245 254 273 259 261 267 274 270 258 336 304 188 269 235 182 288 266 358 299 206 170 160 147 167 139 198 232 155 132 199 205 111 167
328 330 331 330 333 340 336 338 339 331 291 243 272 212 105 241 270 287 261 257 240 233 282 259 301 308 297 292 242 133 292 333 13 264 82 206 183 165 196 197 62 181 156 157 142 137 163